Regional Weather Roundup
Issued by NWS Green Bay, WI

Home | Current Version | Previous Version | Graphics & Text | Print | Product List | Glossary Off
Versions: 1 2 3 4 5 6 7 8 9 10 11 12 13 14 15 16 17 18 19 20 21 22 23 24 25 26 27 28 29 30 31 32 33 34 35 36 37 38 39 40 41 42 43 44 45 46 47 48 49 50

000
ASUS43 KGRB 181701
RWRGRB

NORTH-CENTRAL AND NORTHEAST WISCONSIN REGIONAL WEATHER ROUNDUP
NATIONAL WEATHER SERVICE GREEN BAY WI
1200 PM CDT WED OCT 18 2017

WIZ005-009-010>012-018-019-181800-
NORTH CENTRAL WISCONSIN

CITY           SKY/WX    TMP DP  RH WIND       PRES   REMARKS
IRONWOOD       SUNNY     68  46  45 SW16G24   29.75R
MANITOWISH WTR NOT AVBL
ARBOR VITAE    NOT AVBL
EAGLE RIVER    NOT AVBL
LAND O LAKES   NOT AVBL
RHINELANDER    SUNNY     64  48  56 SW17G28   29.86F
PHILLIPS       CLOUDY    65  48  54 SW15G22   29.80F
ANTIGO         NOT AVBL
TOMAHAWK       NOT AVBL
MERRILL        SUNNY     65  48  54 SW9G17    29.89F
$$

WIZ013-073-181800-
NORTHEAST WISCONSIN

CITY           SKY/WX    TMP DP  RH WIND       PRES   REMARKS
IRON MOUNTAIN  SUNNY     67  45  45 S15       29.85F
MARINETTE      SUNNY     64  48  56 SW15G21   29.93F
$$

WIZ017-030-035>037-045-181800-
CENTRAL WISCONSIN

CITY           SKY/WX    TMP DP  RH WIND       PRES   REMARKS
MEDFORD        NOT AVBL
WAUSAU         SUNNY     63  47  55 S12G22    29.88F
MOSINEE        MOSUNNY   63  48  59 S13G18    29.91F
MARSHFIELD     SUNNY     65  46  50 S17G25    29.89F
WISC RAPIDS    SUNNY     65  48  54 SW15      29.93F
STEVENS POINT  NOT AVBL
WAUPACA        NOT AVBL
SHAWANO        SUNNY     67  47  49 S8G17     29.92F
CLINTONVILLE   NOT AVBL
WAUTOMA        SUNNY     66  47  50 S10G22    29.95
$$

WIZ038-039-048-051-181800-
FOX VALLEY

CITY           SKY/WX    TMP DP  RH WIND       PRES   REMARKS
NWS GREEN BAY  SUNNY     63  49  60 SW15G25   29.96F
APPLETON       NOT AVBL
OSHKOSH        SUNNY     65  48  54 S16G22    29.97S
FOND DU LAC    SUNNY     67  43  41 SW16G24   29.99S
$$

WIZ022-050-052-181800-
EAST CENTRAL WISCONSIN

CITY           SKY/WX    TMP DP  RH WIND       PRES   REMARKS
EPHRAIM        FAIR      65  48  54 S10G18    29.93F
WASHINGTON ISL NOT AVBL
STURGEON BAY   SUNNY     67  48  50 S16G25    29.94F
MANITOWOC      SUNNY     64  49  57 SE15      29.99F
SHEBOYGAN      SUNNY     69  48  47 S20G28    30.00S
$$

LMZ563-521-522-541>543-181800-
LAKESHORE

STATION/POSITION TIME  TEMP    WIND        PRES    VSBY  WAVE
                       AIR SEA DIR/SP/G                  HT/PER
                 (UTC) (F)     (DEG/KT/KT) (MB)    (MI)  (FT/S)
SHEBOYGAN LKSHOR 1600   56     180/ 23/ 25 1015.8F
KEWAUNEE LKSHORE 1624   58     180/ 16/ 18 1014.6
NORTHPORT PIER   1640   62     160/  7/ 15 1013.9F
N MID LAKE BUOY  1550   60 59  190/ 25/ 29 1014.4F         6/ 6
S GREEN BAY BUOY 1630   60 58  210/ 14/ 17 1014.0S
SISTER BAY LKSHO 1619   67      CALM  / 17   N/A
MENOMINEE LKSHOR 1624   60     200/ 15/ 21 1013.7
$$




USA.gov is the U.S. government's official web portal to all federal, state and local government web resources and services.